Regional Weather Roundup
Issued by NWS

Home | Current Version | Previous Version | Text Only | Print | Product List | Glossary Off
Versions: 1 2 3 4 5 6 7 8 9 10 11 12 13 14 15 16 17 18 19 20 21 22 23 24 25 26 27 28 29 30 31 32 33 34 35 36 37 38 39 40 41 42 43 44 45 46 47 48 49 50

000
ASUS43 KMKX 050011
RWRWI

WISCONSIN REGIONAL WEATHER ROUNDUP
NATIONAL WEATHER SERVICE MILWAUKEE/SULLIVAN WI
700 PM CDT MON MAY 04 2015

NOTE: "FAIR" INDICATES FEW OR NO CLOUDS BELOW 12,000 FEET WITH NO
SIGNIFICANT WEATHER AND/OR OBSTRUCTIONS TO VISIBILITY.

WIZ001-002-006>008-014>016-023>028-050100-
NORTHWEST WISCONSIN

CITY           SKY/WX    TMP DP  RH WIND       PRES   REMARKS
SUPERIOR ARPT  MOSUNNY   66  20  17 CALM      30.18S
6HR MIN TEMP:  64; 6HR MAX TEMP:  68;

ASHLAND        MOSUNNY   63  25  23 E3        30.20R
6HR MIN TEMP:  63; 6HR MAX TEMP:  68;

HAYWARD        MOSUNNY   66  16  14 CALM      30.19R
6HR MIN TEMP:  63; 6HR MAX TEMP:  68;

SIREN          MOSUNNY   67  18  15 CALM      30.18S
6HR MIN TEMP:  66; 6HR MAX TEMP:  70;

CUMBERLAND     MOSUNNY   64  23  20 NE3       30.18R
RICE LAKE      MOSUNNY   68  20  16 CALM      30.19R
6HR MIN TEMP:  65; 6HR MAX TEMP:  70;

CHETEK         MOSUNNY   67  29  23 CALM      30.18R
6HR MIN TEMP:  64; 6HR MAX TEMP:  69;

LADYSMITH      MOSUNNY   66  29  24 CALM      30.19R
6HR MIN TEMP:  64; 6HR MAX TEMP:  69;

EAU CLAIRE     CLOUDY    67  28  23 NW3       30.16S
6HR MIN TEMP:  67; 6HR MAX TEMP:  71;

MENOMONIE      PTSUNNY   68  22  17 NE5       30.17S
6HR MIN TEMP:  66; 6HR MAX TEMP:  70;

NEW RICHMOND   PTSUNNY   68  26  21 E3        30.17S
6HR MIN TEMP:  66; 6HR MAX TEMP:  71;

OSCEOLA        PTSUNNY   66  31  27 N3        30.19S
6HR MIN TEMP:  66; 6HR MAX TEMP:  70;

$$

WIZ003>005-009-010-017-018-050100-
NORTH CENTRAL WISCONSIN

CITY           SKY/WX    TMP DP  RH WIND       PRES   REMARKS
MANITOWISH WTR MOSUNNY   60  20  21 N5        30.21R
6HR MIN TEMP:  60; 6HR MAX TEMP:  63;

ARBOR VITAE    MOSUNNY   62  16  17 NW5       30.21R
6HR MIN TEMP:  62; 6HR MAX TEMP:  65;

WOODRUFF       MOSUNNY   62  16  17 NW5       30.21R
6HR MIN TEMP:  62; 6HR MAX TEMP:  65;

RHINELANDER    MOSUNNY   64  23  21 NE3       30.19S
6HR MIN TEMP:  61; 6HR MAX TEMP:  67;

EAGLE RIVER    MOSUNNY   63  19  19 N7        30.20R
6HR MIN TEMP:  60; 6HR MAX TEMP:  65;

LAND O LAKES   SUNNY     62  21  20 N6        30.21R
6HR MIN TEMP:  62; 6HR MAX TEMP:  65;

PHILLIPS       MOSUNNY   63  25  23 N7        30.18R
6HR MIN TEMP:  61; 6HR MAX TEMP:  66;

TOMAHAWK       MOSUNNY   63  25  23 CALM      30.19S
6HR MIN TEMP:  63; 6HR MAX TEMP:  67;

MEDFORD        PTSUNNY   65  30  27 CALM      30.17S
6HR MIN TEMP:  63; 6HR MAX TEMP:  67;

MERRILL        PTSUNNY   66  31  26 CALM      30.17F
6HR MIN TEMP:  64; 6HR MAX TEMP:  68;

$$

WIZ029-030-035-036-043>047-050100-
CENTRAL WISCONSIN

CITY           SKY/WX    TMP DP  RH WIND       PRES   REMARKS
WAUSAU         CLOUDY    67  28  23 NE5       30.15S
6HR MIN TEMP:  66; 6HR MAX TEMP:  70;

MOSINEE        SUNNY     64  28  25 N5        30.18S
MARSHFIELD     CLOUDY    65  41  41 W3        30.16F
6HR MIN TEMP:  65; 6HR MAX TEMP:  70;

STEVENS POINT  CLOUDY    66  33  29 CALM      30.16S
6HR MIN TEMP:  66; 6HR MAX TEMP:  69;

WAUPACA        MOCLDY    71  36  27 NW6       30.15R
WAUTOMA        PTSUNNY   71  36  27 CALM      30.14S
6HR MIN TEMP:  71; 6HR MAX TEMP:  74;

WISC RAPIDS    PTSUNNY   68  34  28 N6        30.16S
6HR MIN TEMP:  68; 6HR MAX TEMP:  73;

CAMP DOUGLAS   PTSUNNY   70  39  32 N5        30.13S
$$

WIZ011>013-019>022-031-037>040-048>050-050100-
NORTHEAST WISCONSIN

CITY           SKY/WX    TMP DP  RH WIND       PRES   REMARKS
ANTIGO         PTSUNNY   64  35  33 CALM      30.19R
SHAWANO        MOCLDY    64  41  43 SE12      30.18R
6HR MIN TEMP:  64; 6HR MAX TEMP:  75;

OCONTO         MOCLDY    58  42  54 SE7       30.19R
6HR MIN TEMP:  58; 6HR MAX TEMP:  69;

STURGEON BAY   MOCLDY    54  36  50 E7        30.23R
6HR MIN TEMP:  54; 6HR MAX TEMP:  68;

GREEN BAY      MOCLDY    61  40  45 E14       30.19R
6HR MIN TEMP:  61; 6HR MAX TEMP:  75;

MANITOWOC      MOCLDY    58  40  51 E9        30.20R
6HR MIN TEMP:  58; 6HR MAX TEMP:  69;

APPLETON       MOCLDY    63  39  42 SE12      30.16R
CLINTONVILLE   MOCLDY    64  37  36 E12G17    30.16R
OSHKOSH        PTCLDY    63  41  44 SE12      30.15R
6HR MIN TEMP:  63; 6HR MAX TEMP:  71;

$$

WIZ032>034-041-042-053>061-050100-
SOUTHWEST WISCONSIN

CITY           SKY/WX    TMP DP  RH WIND       PRES   REMARKS
LA CROSSE      CLOUDY    69  44  40 NW10      30.13S
6HR MIN TEMP:  69; 6HR MAX TEMP:  75;

SPARTA         CLOUDY    68  34  28 N5        30.15S
6HR MIN TEMP:  68; 6HR MAX TEMP:  73;

VIROQUA        CLOUDY    66  44  44 NE5       30.14S
6HR MIN TEMP:  66; 6HR MAX TEMP:  72;

BOSCOBEL       CLOUDY    73  48  41 VRB3      30.11S
6HR MIN TEMP:  73; 6HR MAX TEMP:  77;

PRAIRIE DU CHI CLOUDY    71  44  38 N5        30.10S
6HR MIN TEMP:  69; 6HR MAX TEMP:  74;

PLATTEVILLE    CLOUDY    70  56  62 E7        30.11S
6HR MIN TEMP:  68; 6HR MAX TEMP:  73;

$$

WIZ056-057-062-063-064-067-068-050100-
SOUTH CENTRAL WISCONSIN

CITY           SKY/WX    TMP DP  RH WIND       PRES   REMARKS
REEDSBURG      CLOUDY    70  44  37 N5        30.12S
6HR MIN TEMP:  68; 6HR MAX TEMP:  73;

BARABOO/DELLS  CLOUDY    68  46  43 NE3       30.12
LONE ROCK      CLOUDY    70  56  61 E5        30.11S
6HR MIN TEMP:  70; 6HR MAX TEMP:  76;

MINERAL POINT  CLOUDY    70  54  56 E5        30.12S
MADISON        CLOUDY    69  54  58 E14       30.12S
6HR MIN TEMP:  69; 6HR MAX TEMP:  75;

MIDDLETON      PTSUNNY   71  51  49 E5        30.13R
6HR MIN TEMP:  71; 6HR MAX TEMP:  75;

WATERTOWN      MOCLDY    64  38  37 E9        30.14S
6HR MIN TEMP:  64; 6HR MAX TEMP:  72;

MONROE         CLOUDY    68  57  68 NE6       30.12R
JANESVILLE     MOCLDY    70  54  56 E15G21    30.13R
$$

WIZ051-052-058>065-066-070>072-050100-
SOUTHEAST WISCONSIN

CITY           SKY/WX    TMP DP  RH WIND       PRES   REMARKS
MILWAUKEE      MOCLDY    55  38  52 E5        30.17R
6HR MIN TEMP:  55; 6HR MAX TEMP:  66;

WAUKESHA       CLEAR     59  37  44 E12       30.18R
MILWAUKEE/TIMM NOT AVBL
RACINE         PTCLDY    54  38  54 NE8       30.18S
6HR MIN TEMP:  54; 6HR MAX TEMP:  69;

BURLINGTON     PTCLDY    61  35  39 E8        30.16S
6HR MIN TEMP:  61; 6HR MAX TEMP:  71;

KENOSHA        MOCLDY    58  39  49 E8        30.17R
6HR MIN TEMP:  58; 6HR MAX TEMP:  69;

FOND DU LAC    PTCLDY    64  39  39 E12       30.15S
6HR MIN TEMP:  64; 6HR MAX TEMP:  73;

SHEBOYGAN      PTCLDY    54  39  57 NE10      30.18S
6HR MIN TEMP:  54; 6HR MAX TEMP:  69;

WEST BEND      MOCLDY    59  34  38 E9        30.18R
JUNEAU         MOCLDY    65  40  40 E13       30.16R
6HR MIN TEMP:  65; 6HR MAX TEMP:  72;

$$

LSZ147-162-050100-
LAKE SUPERIOR

STATION/POSITION TIME  TEMP    WIND        PRES    WAVE
                       AIR SEA DIR/SP/G            HT/PER
                 (UTC) (F)     (DEG/KT/KT) (MB)    (FT/S)
W MID LAKE BUOY  2350   40 36  190/  8/  8 1023.0R   1
DEVILS ISLAND    0000   59     170/  6/  8 1022.6R
PORT WING        2300   60     320/  2/  3 1022.4
SAXON HARBOR     2300   60        CALM     1022.4
$$

LMZ867-665-643>646-050100-
LAKE MICHIGAN

STATION/POSITION TIME  TEMP    WIND        PRES    WAVE
                       AIR SEA DIR/SP/G            HT/PER
                 (UTC) (F)     (DEG/KT/KT) (MB)    (FT/S)
CHAMBERS ISLAND  2300   58      80/  7/ 13 1022.4R
NORTHPORT PIER   2300   51     140/  5/ 18 1022.4R


USA.gov is the U.S. government's official web portal to all federal, state and local government web resources and services.